This demonstration page uses our WeatherBlox Daily Observations layout. Learn more.

Left ArrowRight Arrow

39.01783, -85.05884

Hourly Observations for November 2, 2021

Temp ( °F °C ) Dew Point ( °F °C ) Humidity (%) Winds ( mph kmh ) Pressure ( in mb ) Visibility ( mi km ) Precip ( " mm )
12:52 am 00:52 Cloudy 44 6.7 32 undefined 63 63 W 5 7 30.29 1026 10 16 N/A
1:52 am 01:52 Cloudy 44 6.7 33 0.6 65 65 WNW 7 11 30.29 1026 10 16 N/A
2:52 am 02:52 Cloudy 44 6.7 32 undefined 63 63 NW 8 13 30.30 1026 10 16 N/A
3:52 am 03:52 Cloudy 42 5.6 31 -0.6 65 65 NW 9 15 30.31 1026 10 16 N/A
4:52 am 04:52 Cloudy 41 5 30 -1.1 65 65 WNW 9 15 30.31 1027 10 16 N/A
5:52 am 05:52 Cloudy 40 4.4 31 -0.6 70 70 NW 5 7 30.32 1027 10 16 N/A
6:52 am 06:52 Cloudy 39 3.9 31 -0.6 73 73 W 9 15 30.33 1027 10 16 N/A
7:52 am 07:52 Mostly Cloudy 38 3.3 31 -0.6 76 76 W 6 9 30.32 1027 10 16 N/A
8:52 am 08:52 Mostly Cloudy 37 2.8 32 undefined 82 82 W 5 7 30.34 1027 10 16 N/A
9:52 am 09:52 Cloudy 40 4.4 33 0.6 77 77 W 7 11 30.35 1028 10 16 N/A
10:52 am 10:52 Cloudy 41 5 33 0.6 73 73 WNW 6 9 30.36 1028 10 16 N/A
11:52 am 11:52 Mostly Cloudy 44 6.7 33 0.6 65 65 WNW 6 9 30.36 1028 10 16 N/A
12:52 pm 12:52 Mostly Cloudy 45 7.2 31 -0.6 58 58 NW 8 13 30.35 1028 10 16 N/A
1:52 pm 13:52 Mostly Cloudy 47 8.3 30 -1.1 52 52 W 12 19 30.32 1027 10 16 N/A
2:52 pm 14:52 Mostly Cloudy 47 8.3 28 -2.2 48 48 NW 9 15 30.31 1026 10 16 N/A
3:52 pm 15:52 Partly Cloudy 49 9.4 26 -3.3 41 41 NW 13 20 30.30 1026 10 16 N/A
4:52 pm 16:52 Mostly Sunny 45 7.2 25 -3.9 46 46 W 10 17 30.30 1026 10 16 N/A
5:52 pm 17:52 Mostly Sunny 46 7.8 25 -3.9 44 44 WNW 10 17 30.32 1027 10 16 N/A
6:52 pm 18:52 Mostly Clear 42 5.6 24 -4.4 49 49 WNW 7 11 30.32 1027 10 16 N/A
7:52 pm 19:52 Mostly Clear 38 3.3 24 -4.4 57 57 W 6 9 30.33 1027 10 16 N/A
8:52 pm 20:52 Mostly Clear 36 2.2 25 -3.9 64 64 WNW 6 9 30.34 1027 10 16 N/A
9:52 pm 21:52 Mostly Clear 37 2.8 26 -3.3 65 65 WNW 8 13 30.36 1028 10 16 N/A
10:52 pm 22:52 Mostly Clear 37 2.8 25 -3.9 62 62 NW 6 9 30.37 1028 10 16 N/A
11:52 pm 23:52 Mostly Clear 32 undefined 25 -3.9 75 75 N N/A 30.38 1029 10 16 N/A

Powered by AerisWeather